User: anonymous   Login
Location: Unspecified
(0.0000°N, 0.0000°E)
Time: 01:58:30
(UTC+00:00)
Language:

GEO-KOMPSAT-2B - Orbit

View from above orbital plane
View from above orbital plane
View from above satellite
View from above satellite

Ground track
Ground track

The orbit is defined by the following mean orbital elements,

1 45246U          26145.60918612 +.00000000 +00000-0 +00000-0 0 00005
2 45246   0.0132 260.6867 0000685  74.0122 256.0681  1.00271214    05
Epoch (UTC): 25 May 2026 14:37:13
Eccentricity: 0.0000685
inclination: 0.0132°
perigee height: 35784 km
apogee height: 35790 km
right ascension of ascending node: 260.6867°
argument of perigee: 74.0122°
revolutions per day: 1.00271214
mean anomaly at epoch: 256.0681°

The dashed part of the orbit path shows where the satellite is in the earth's shadow,  

DLR